Time,TemperatureF,DewpointF,PressureIn,WindDirection,WindDirectionDegrees,WindSpeedMPH,WindSpeedGustMPH,Humidity,HourlyPrecipIn,Conditions,Clouds,dailyrainin,SoftwareType,DateUTC
2013-06-29 00:14:00,68.4,62.0,29.42,SW,225,0.0,-999.0,80,-99.99,,,0.00,Acu-Link.com,2013-06-29 04:14:00,
2013-06-29 00:29:00,68.0,61.6,29.42,SSW,202,0.0,-999.0,80,-99.99,,,0.00,Acu-Link.com,2013-06-29 04:29:00,
2013-06-29 00:44:00,67.5,61.8,29.43,North,0,0.0,-999.0,82,-99.99,,,0.00,Acu-Link.com,2013-06-29 04:44:00,
2013-06-29 01:00:00,66.9,61.6,29.42,NE,45,0.0,-999.0,83,-99.99,,,0.00,Acu-Link.com,2013-06-29 05:00:00,
2013-06-29 01:15:00,66.6,61.6,29.41,ESE,112,0.0,-999.0,84,-99.99,,,0.00,Acu-Link.com,2013-06-29 05:15:00,
2013-06-29 01:30:00,66.4,62.1,29.41,South,180,1.7,-999.0,86,-99.99,,,0.00,Acu-Link.com,2013-06-29 05:30:00,
2013-06-29 01:46:00,66.0,62.0,29.41,SW,225,0.0,-999.0,87,-99.99,,,0.00,Acu-Link.com,2013-06-29 05:46:00,
2013-06-29 02:01:00,66.0,61.7,29.40,SE,135,0.0,-999.0,86,-99.99,,,0.00,Acu-Link.com,2013-06-29 06:01:00,
2013-06-29 02:16:00,65.3,61.7,29.40,South,180,0.0,-999.0,88,-99.99,,,0.00,Acu-Link.com,2013-06-29 06:16:00,
2013-06-29 02:32:00,65.7,61.7,29.39,SSW,202,0.0,-999.0,87,-99.99,,,0.00,Acu-Link.com,2013-06-29 06:32:00,
2013-06-29 02:47:00,65.7,62.0,29.39,West,270,0.0,-999.0,88,-99.99,,,0.00,Acu-Link.com,2013-06-29 06:47:00,
2013-06-29 03:02:00,66.0,62.0,29.39,West,270,1.7,-999.0,87,-99.99,,,0.00,Acu-Link.com,2013-06-29 07:02:00,
2013-06-29 03:18:00,66.7,62.0,29.39,SW,225,1.7,-999.0,85,-99.99,,,0.00,Acu-Link.com,2013-06-29 07:18:00,
2013-06-29 03:33:00,67.1,62.1,29.39,West,270,1.7,-999.0,84,-99.99,,,0.00,Acu-Link.com,2013-06-29 07:33:00,
2013-06-29 03:48:00,66.6,61.9,29.38,WSW,247,0.0,-999.0,85,-99.99,,,0.00,Acu-Link.com,2013-06-29 07:48:00,
2013-06-29 04:04:00,66.6,61.9,29.38,WSW,247,0.0,-999.0,85,-99.99,,,0.00,Acu-Link.com,2013-06-29 08:04:00,
2013-06-29 04:19:00,66.6,61.9,29.38,SW,225,1.7,-999.0,85,-99.99,,,0.00,Acu-Link.com,2013-06-29 08:19:00,
2013-06-29 04:35:00,66.7,62.0,29.38,WSW,247,1.7,-999.0,85,-99.99,,,0.00,Acu-Link.com,2013-06-29 08:35:00,
2013-06-29 04:50:00,66.4,61.7,29.38,SW,225,1.1,-999.0,85,-99.99,,,0.00,Acu-Link.com,2013-06-29 08:50:00,
2013-06-29 05:05:00,66.2,61.9,29.38,SSW,202,0.0,-999.0,86,-99.99,,,0.00,Acu-Link.com,2013-06-29 09:05:00,
2013-06-29 05:20:00,65.8,61.5,29.39,SW,225,1.1,-999.0,86,-99.99,,,0.00,Acu-Link.com,2013-06-29 09:20:00,
2013-06-29 05:35:00,65.5,61.5,29.40,South,180,0.0,-999.0,87,-99.99,,,0.00,Acu-Link.com,2013-06-29 09:35:00,
2013-06-29 05:50:00,65.5,61.8,29.40,SW,225,1.1,-999.0,88,-99.99,,,0.00,Acu-Link.com,2013-06-29 09:50:00,
2013-06-29 06:06:00,65.8,61.5,29.41,WSW,247,0.0,-999.0,86,-99.99,,,0.00,Acu-Link.com,2013-06-29 10:06:00,
2013-06-29 06:21:00,66.2,61.9,29.41,West,270,0.0,-999.0,86,-99.99,,,0.00,Acu-Link.com,2013-06-29 10:21:00,
2013-06-29 06:36:00,66.6,61.9,29.41,South,180,0.0,-999.0,85,-99.99,,,0.00,Acu-Link.com,2013-06-29 10:36:00,
2013-06-29 06:52:00,66.9,62.2,29.41,SSE,157,1.7,-999.0,85,-99.99,,,0.00,Acu-Link.com,2013-06-29 10:52:00,
2013-06-29 07:07:00,66.9,62.2,29.41,SSE,157,2.2,-999.0,85,-99.99,,,0.00,Acu-Link.com,2013-06-29 11:07:00,
2013-06-29 07:22:00,67.1,62.4,29.41,ESE,112,1.7,-999.0,85,-99.99,,,0.00,Acu-Link.com,2013-06-29 11:22:00,
2013-06-29 07:37:00,67.5,62.8,29.42,SSE,157,2.7,-999.0,85,-99.99,,,0.00,Acu-Link.com,2013-06-29 11:37:00,
2013-06-29 07:52:00,67.3,62.6,29.41,WSW,247,2.2,-999.0,85,-99.99,,,0.00,Acu-Link.com,2013-06-29 11:52:00,
2013-06-29 08:07:00,68.7,62.6,29.42,WSW,247,2.7,-999.0,81,-99.99,,,0.00,Acu-Link.com,2013-06-29 12:07:00,
2013-06-29 08:23:00,68.4,62.3,29.41,West,270,2.2,-999.0,81,-99.99,,,0.00,Acu-Link.com,2013-06-29 12:23:00,
2013-06-29 08:38:00,70.0,63.2,29.41,SSW,202,3.2,-999.0,79,-99.99,,,0.00,Acu-Link.com,2013-06-29 12:38:00,
2013-06-29 08:53:00,70.9,62.6,29.41,SW,225,3.7,-999.0,75,-99.99,,,0.00,Acu-Link.com,2013-06-29 12:53:00,
2013-06-29 09:09:00,71.8,62.7,29.41,West,270,3.2,-999.0,73,-99.99,,,0.00,Acu-Link.com,2013-06-29 13:09:00,
2013-06-29 09:24:00,72.3,62.8,29.42,West,270,5.3,-999.0,72,-99.99,,,0.00,Acu-Link.com,2013-06-29 13:24:00,
2013-06-29 09:39:00,73.2,63.2,29.41,West,270,3.2,-999.0,71,-99.99,,,0.00,Acu-Link.com,2013-06-29 13:39:00,
2013-06-29 09:55:00,73.2,63.6,29.41,WSW,247,4.7,-999.0,72,-99.99,,,0.00,Acu-Link.com,2013-06-29 13:55:00,
2013-06-29 10:10:00,74.5,64.1,29.42,SW,225,3.2,-999.0,70,-99.99,,,0.00,Acu-Link.com,2013-06-29 14:10:00,
2013-06-29 10:25:00,74.7,63.4,29.41,NNW,337,4.7,-999.0,68,-99.99,,,0.00,Acu-Link.com,2013-06-29 14:25:00,
2013-06-29 10:40:00,75.6,64.3,29.42,West,270,4.2,-999.0,68,-99.99,,,0.00,Acu-Link.com,2013-06-29 14:40:00,
2013-06-29 10:55:00,75.7,63.9,29.41,WSW,247,8.3,-999.0,67,-99.99,,,0.00,Acu-Link.com,2013-06-29 14:55:00,
2013-06-29 11:10:00,76.1,65.2,29.41,West,270,4.2,-999.0,69,-99.99,,,0.00,Acu-Link.com,2013-06-29 15:10:00,
2013-06-29 11:25:00,76.8,65.4,29.41,West,270,4.2,-999.0,68,-99.99,,,0.00,Acu-Link.com,2013-06-29 15:25:00,
2013-06-29 11:41:00,78.1,64.9,29.42,West,270,2.7,-999.0,64,-99.99,,,0.00,Acu-Link.com,2013-06-29 15:41:00,
2013-06-29 11:56:00,77.5,64.3,29.42,West,270,4.7,-999.0,64,-99.99,,,0.00,Acu-Link.com,2013-06-29 15:56:00,
2013-06-29 12:11:00,77.2,64.1,29.42,West,270,3.2,-999.0,64,-99.99,,,0.00,Acu-Link.com,2013-06-29 16:11:00,
2013-06-29 12:26:00,77.5,65.2,29.41,West,270,1.7,-999.0,66,-99.99,,,0.00,Acu-Link.com,2013-06-29 16:26:00,
2013-06-29 12:41:00,77.0,64.8,29.42,South,180,3.2,-999.0,66,-99.99,,,0.00,Acu-Link.com,2013-06-29 16:41:00,
2013-06-29 12:57:00,79.0,66.2,29.41,South,180,3.2,-999.0,65,-99.99,,,0.00,Acu-Link.com,2013-06-29 16:57:00,
2013-06-29 13:12:00,77.5,63.9,29.41,NW,315,6.3,-999.0,63,-99.99,,,0.00,Acu-Link.com,2013-06-29 17:12:00,
2013-06-29 13:27:00,77.9,65.2,29.41,SSE,157,5.3,-999.0,65,-99.99,,,0.00,Acu-Link.com,2013-06-29 17:27:00,
2013-06-29 13:42:00,80.6,66.8,29.40,SSW,202,4.7,-999.0,63,-99.99,,,0.00,Acu-Link.com,2013-06-29 17:42:00,
2013-06-29 13:57:00,78.3,64.6,29.40,West,270,5.3,-999.0,63,-99.99,,,0.00,Acu-Link.com,2013-06-29 17:57:00,
2013-06-29 14:12:00,80.1,65.4,29.40,WSW,247,3.7,-999.0,61,-99.99,,,0.00,Acu-Link.com,2013-06-29 18:12:00,
2013-06-29 14:27:00,81.0,64.8,29.40,West,270,3.7,-999.0,58,-99.99,,,0.00,Acu-Link.com,2013-06-29 18:27:00,
2013-06-29 14:43:00,79.9,65.7,29.39,NNW,337,3.7,-999.0,62,-99.99,,,0.00,Acu-Link.com,2013-06-29 18:43:00,
2013-06-29 14:58:00,79.5,63.9,29.40,SW,225,3.2,-999.0,59,-99.99,,,0.00,Acu-Link.com,2013-06-29 18:58:00,
2013-06-29 15:13:00,80.6,65.4,29.39,West,270,5.8,-999.0,60,-99.99,,,0.00,Acu-Link.com,2013-06-29 19:13:00,
2013-06-29 15:28:00,79.5,64.4,29.39,SSW,202,6.3,-999.0,60,-99.99,,,0.00,Acu-Link.com,2013-06-29 19:28:00,
2013-06-29 15:44:00,79.3,65.1,29.39,WSW,247,3.7,-999.0,62,-99.99,,,0.00,Acu-Link.com,2013-06-29 19:44:00,
2013-06-29 15:59:00,79.7,65.5,29.39,West,270,6.3,-999.0,62,-99.99,,,0.00,Acu-Link.com,2013-06-29 19:59:00,
2013-06-29 16:14:00,80.2,66.0,29.39,SW,225,6.3,-999.0,62,-99.99,,,0.00,Acu-Link.com,2013-06-29 20:14:00,
2013-06-29 16:29:00,80.2,65.5,29.39,SW,225,4.2,-999.0,61,-99.99,,,0.00,Acu-Link.com,2013-06-29 20:29:00,
2013-06-29 16:45:00,79.2,65.0,29.39,SW,225,3.2,-999.0,62,-99.99,,,0.00,Acu-Link.com,2013-06-29 20:45:00,
2013-06-29 17:00:00,82.0,67.2,29.38,West,270,3.2,-999.0,61,-99.99,,,0.00,Acu-Link.com,2013-06-29 21:00:00,
2013-06-29 17:15:00,81.5,66.7,29.39,West,270,4.2,-999.0,61,-99.99,,,0.00,Acu-Link.com,2013-06-29 21:15:00,
2013-06-29 17:30:00,81.3,64.6,29.38,SSE,157,9.4,-999.0,57,-99.99,,,0.00,Acu-Link.com,2013-06-29 21:30:00,
2013-06-29 17:45:00,81.9,64.6,29.39,West,270,6.3,-999.0,56,-99.99,,,0.00,Acu-Link.com,2013-06-29 21:45:00,
2013-06-29 18:01:00,78.4,64.3,29.38,NW,315,6.3,-999.0,62,-99.99,,,0.00,Acu-Link.com,2013-06-29 22:01:00,
2013-06-29 18:16:00,80.1,64.9,29.38,SW,225,3.7,-999.0,60,-99.99,,,0.00,Acu-Link.com,2013-06-29 22:16:00,
2013-06-29 18:31:00,80.4,64.2,29.38,West,270,3.7,-999.0,58,-99.99,,,0.00,Acu-Link.com,2013-06-29 22:31:00,
2013-06-29 18:46:00,81.1,65.4,29.38,WSW,247,4.7,-999.0,59,-99.99,,,0.00,Acu-Link.com,2013-06-29 22:46:00,
2013-06-29 19:02:00,79.0,64.8,29.39,SSW,202,2.2,-999.0,62,-99.99,,,0.00,Acu-Link.com,2013-06-29 23:02:00,
2013-06-29 19:17:00,79.9,66.2,29.39,SW,225,2.2,-999.0,63,-99.99,,,0.00,Acu-Link.com,2013-06-29 23:17:00,
2013-06-29 19:32:00,78.8,65.6,29.39,South,180,1.7,-999.0,64,-99.99,,,0.00,Acu-Link.com,2013-06-29 23:32:00,
2013-06-29 19:47:00,75.4,64.5,29.41,NNW,337,2.7,-999.0,69,-99.99,,,0.00,Acu-Link.com,2013-06-29 23:47:00,
2013-06-29 20:02:00,72.5,65.6,29.41,NE,45,3.7,-999.0,79,-99.99,,,0.00,Acu-Link.com,2013-06-30 00:02:00,
2013-06-29 20:17:00,71.1,66.7,29.41,NNE,22,2.2,-999.0,86,-99.99,,,0.00,Acu-Link.com,2013-06-30 00:17:00,
2013-06-29 20:33:00,69.8,65.1,29.42,ENE,67,2.7,-999.0,85,-99.99,,,0.00,Acu-Link.com,2013-06-30 00:33:00,
2013-06-29 20:48:00,68.5,64.1,29.42,ENE,67,2.2,-999.0,86,-99.99,,,0.00,Acu-Link.com,2013-06-30 00:48:00,
2013-06-29 21:03:00,68.5,63.8,29.44,SW,225,1.1,-999.0,85,-99.99,,,0.00,Acu-Link.com,2013-06-30 01:03:00,
2013-06-29 21:19:00,68.4,64.0,29.44,NNE,22,2.7,-999.0,86,-99.99,,,0.00,Acu-Link.com,2013-06-30 01:19:00,
2013-06-29 21:34:00,66.0,63.3,29.45,SSW,202,1.7,-999.0,91,-99.99,,,0.08,Acu-Link.com,2013-06-30 01:34:00,
2013-06-29 21:49:00,64.8,63.6,29.44,East,90,1.7,-999.0,96,-99.99,,,0.12,Acu-Link.com,2013-06-30 01:49:00,
2013-06-29 22:04:00,64.8,63.6,29.44,NE,45,2.2,-999.0,96,-99.99,,,0.14,Acu-Link.com,2013-06-30 02:04:00,
2013-06-29 22:20:00,64.4,63.5,29.43,South,180,0.0,-999.0,97,-99.99,,,0.14,Acu-Link.com,2013-06-30 02:20:00,
2013-06-29 22:35:00,64.0,62.8,29.43,SSW,202,0.0,-999.0,96,-99.99,,,0.14,Acu-Link.com,2013-06-30 02:35:00,
2013-06-29 22:50:00,64.0,63.4,29.43,South,180,1.7,-999.0,98,-99.99,,,0.14,Acu-Link.com,2013-06-30 02:50:00,
2013-06-29 23:06:00,64.4,63.8,29.43,South,180,0.0,-999.0,98,-99.99,,,0.14,Acu-Link.com,2013-06-30 03:06:00,
2013-06-29 23:21:00,64.6,64.0,29.44,ESE,112,0.0,-999.0,98,-99.99,,,0.14,Acu-Link.com,2013-06-30 03:21:00,
2013-06-29 23:36:00,65.1,63.9,29.43,South,180,1.7,-999.0,96,-99.99,,,0.14,Acu-Link.com,2013-06-30 03:36:00,
2013-06-29 23:52:00,65.1,64.5,29.47,West,270,3.2,-999.0,98,-99.99,,,0.15,Acu-Link.com,2013-06-30 03:52:00,